Probability
0 0 0 0 0 0 0 0 0 0 0 0 0 0 0 0 0 0 0 0 0 0 0 0 0 1 2 4 3 1 0 0 0 0 0 0 0 0 0 0 0 0 0 0
0 0 0 0 0 0 0 0 0 0 0 0 0 0 0 0 0 0 0 0 0 0 0 0 0 0 1 3 3 2 1 0 0 0 0 0 0 0 0 0 0 0 0 0
0 0 0 0 0 0 0 0 0 0 0 0 0 0 0 0 0 0 0 0 0 0 0 0 0 0 0 1 3 3 1 1 0 0 0 0 0 0 0 0 0 0 0 0
0 0 0 0 0 0 0 0 0 0 0 0 0 0 0 0 0 0 0 0 0 0 0 0 0 0 0 1 2 3 3 2 1 1 0 0 0 0 0 0 0 0 0 0
0 0 0 0 0 0 0 0 0 0 0 0 0 0 0 0 0 0 0 0 0 0 0 0 0 0 0 1 2 3 3 3 3 2 1 0 0 0 0 0 0 0 0 0
0 0 0 0 0 0 0 0 0 0 0 0 0 0 0 0 0 0 0 0 0 0 0 0 0 0 0 1 2 3 3 3 3 3 2 1 0 0 0 0 0 0 0 0
0 0 0 0 0 0 0 0 0 0 0 0 0 0 0 0 0 0 0 0 0 0 0 0 0 0 0 0 1 3 3 3 3 3 3 1 0 0 0 0 0 0 0 0
0 0 0 0 0 0 0 0 0 0 0 0 0 0 0 0 0 0 0 0 0 0 0 0 0 0 0 0 1 2 2 3 3 3 3 2 1 0 0 0 0 0 0 0
0 0 0 0 0 0 0 0 0 0 0 0 0 0 0 0 0 0 0 0 0 0 0 0 0 0 0 0 0 1 1 1 2 2 2 2 1 0 0 0 0 0 0 0
0 0 0 0 0 0 0 0 0 0 0 0 0 0 0 0 0 0 0 0 0 0 0 0 0 0 0 0 0 0 0 0 1 1 1 1 0 0 0 0 0 0 0 0
0 0 0 0 0 0 0 0 0 0 0 0 0 0 0 0 0 0 0 0 0 0 0 0 0 0 0 0 0 0 0 0 0 0 0 0 0 0 0 0 0 0 0 0
0 0 0 0 0 0 0 0 0 0 0 0 0 0 0 0 0 0 0 0 0 0 0 0 0 0 0 0 0 0 0 0 0 0 0 0 0 0 0 0 0 0 0 0
0 0 0 0 0 0 0 0 0 0 0 0 0 0 0 0 0 0 0 0 0 0 0 0 0 0 0 0 0 0 0 0 0 0 0 0 0 0 0 0 0 0 0 0
0 0 0 0 0 0 0 0 0 0 0 0 0 0 0 0 0 0 0 0 0 0 0 0 0 0 0 0 0 0 0 0 0 0 0 0 0 0 0 0 0 0 0 0
0 0 0 0 0 0 0 0 0 0 0 0 0 0 0 0 0 0 0 0 0 0 0 0 0 0 0 0 0 0 0 0 0 0 0 0 0 0 0 0 0 0 0 0
0 0 0 0 0 0 0 0 0 0 0 0 0 0 0 0 0 0 0 0 0 0 0 0 0 0 0 0 0 0 0 0 0 0 0 0 0 0 0 0 0 0 0 0
0 0 0 0 0 0 0 0 0 0 0 0 0 0 0 0 0 0 0 0 0 0 0 0 0 0 0 0 0 0 0 0 0 0 0 0 0 0 0 0 0 0 0 0
0 0 0 0 0 0 0 0 0 0 0 0 0 0 0 0 0 0 0 0 0 0 0 0 0 0 0 0 0 0 0 0 0 0 0 0 0 0 0 0 0 0 0 0
0 0 0 0 0 0 0 0 0 0 0 0 0 0 0 0 0 0 0 0 0 0 0 0 0 0 0 0 0 0 0 0 0 0 0 0 0 0 0 0 0 0 0 0
0 0 0 0 0 0 0 0 0 0 0 0 0 0 0 0 0 0 0 0 0 0 0 0 0 0 0 0 0 0 0 0 0 0 0 0 0 0 0 0 0 0 0 0
0 0 0 0 0 0 0 0 0 0 0 0 0 0 0 0 0 0 0 0 0 0 0 0 0 0 0 0 0 0 0 0 0 0 0 0 0 0 0 0 0 0 0 0
0 0 0 0 0 0 0 0 0 0 0 0 0 0 0 0 0 0 0 0 0 0 0 0 0 0 0 0 0 0 0 0 0 0 0 0 0 0 0 0 0 0 0 0
0 0 0 0 0 0 0 0 0 0 0 0 0 0 0 0 0 0 0 0 0 0 0 0 0 0 0 0 0 0 0 0 0 0 0 0 0 0 0 0 0 0 0 0
0 0 0 0 0 0 0 0 0 0 0 0 0 0 0 0 0 0 0 0 0 0 0 0 0 0 0 0 0 0 0 0 0 0 0 0 0 0 0 0 0 0 0 0
0 0 0 0 0 0 0 0 0 0 0 0 0 0 0 0 0 0 0 0 0 0 0 0 0 0 0 0 0 0 0 0 0 0 0 0 0 0 0 0 0 0 0 0
0 0 0 0 0 0 0 0 0 0 0 0 0 0 0 0 0 0 0 0 0 0 0 0 0 0 0 0 0 0 0 0 0 0 0 0 0 0 0 0 0 0 0 0
Wind_Speed
2 3 3 6 6 4 2 3 6 5 2 2 6 10 10 5 4 6 6 5 5 6 4 2 3 3 3 3 3 3 2 2 2 2 1 1 1 0 1 1 1 1 1 2
3 3 6 3 2 3 4 5 6 5 1 2 5 10 8 4 5 6 6 6 6 4 2 2 3 3 4 4 4 3 3 2 2 2 1 1 1 1 0 0 1 1 1 1
5 3 2 2 2 3 5 6 7 5 4 2 4 9 5 3 3 3 4 4 4 5 5 4 3 3 3 4 4 3 3 3 2 2 2 2 1 1 0 1 1 1 0 0
3 3 1 1 3 4 6 4 5 4 2 4 0 7 7 4 4 4 4 4 4 4 4 3 3 3 3 4 3 3 3 3 2 2 2 3 2 2 2 1 1 1 0 0
3 1 1 3 4 4 4 1 2 2 3 3 2 5 10 2 5 6 5 4 3 3 3 3 3 4 3 3 3 2 2 2 2 3 3 3 2 1 1 0 0 1 1 0
4 2 2 3 2 2 1 2 2 2 1 5 6 6 9 4 6 4 4 3 2 2 1 1 1 1 1 1 2 2 2 2 2 2 2 3 3 2 1 1 1 1 1 1
4 3 2 0 1 1 2 3 3 3 2 6 2 5 11 6 4 4 4 3 2 1 1 0 0 0 0 1 1 2 2 2 2 2 2 2 3 3 3 3 2 2 1 2
2 5 2 1 3 3 3 4 5 4 5 5 2 8 8 4 3 3 2 2 1 1 0 0 0 0 0 1 1 1 2 2 2 2 2 2 2 2 2 3 2 3 2 2
3 6 1 0 1 3 3 3 3 3 1 4 6 7 9 3 2 1 1 1 1 1 1 0 0 1 1 0 0 1 2 2 2 3 2 2 2 2 2 2 2 2 2 2
4 4 3 2 1 1 2 4 3 3 3 6 7 6 6 5 5 4 2 2 2 1 1 1 1 1 1 0 1 0 1 2 2 2 2 2 2 2 2 2 2 2 2 2
3 3 4 1 4 5 3 2 3 3 3 4 6 8 5 6 5 5 4 3 2 2 1 1 1 1 1 0 0 1 1 1 1 1 1 1 1 1 1 2 2 2 2 2
3 3 4 6 3 1 4 5 6 4 5 4 4 10 3 4 4 3 4 3 2 2 1 1 1 1 1 1 1 1 1 1 1 1 1 1 1 1 1 2 2 2 2 3
4 3 2 4 2 0 2 4 5 3 2 4 6 10 2 2 2 2 3 3 3 2 2 1 1 1 2 2 2 2 2 2 1 1 1 1 1 1 2 2 2 2 2 2
3 4 7 9 5 3 4 5 5 5 5 7 11 12 9 7 6 5 4 4 3 3 3 2 2 2 2 2 2 2 2 2 1 1 1 2 2 2 3 2 2 2 2 2
3 4 6 8 6 4 7 8 8 10 10 11 11 11 14 9 7 6 4 3 3 4 4 3 3 3 3 3 2 2 2 2 1 1 2 3 3 2 2 2 2 2 2 2
2 3 3 6 5 5 9 10 10 12 11 12 12 15 11 6 3 4 4 4 5 5 5 4 3 3 3 3 3 3 3 2 2 2 3 2 2 2 2 2 2 2 2 2
3 3 3 6 4 4 10 10 10 8 8 9 13 14 6 5 5 6 6 5 6 6 5 5 4 4 3 3 3 3 3 2 2 2 2 2 2 2 2 2 2 2 3 2
5 4 3 3 2 9 9 2 6 8 9 9 9 7 5 7 6 5 5 6 6 5 5 5 4 3 3 2 2 2 1 1 2 2 2 2 2 2 2 2 2 3 2 2
6 6 3 3 5 11 7 2 4 5 9 7 8 9 7 5 5 5 3 3 4 4 4 4 3 3 3 2 1 1 1 1 2 2 2 2 2 2 2 3 3 3 3 3
2 3 4 4 5 9 7 2 2 2 8 3 4 7 5 2 4 6 2 2 3 3 2 2 2 1 2 2 1 0 1 1 3 3 3 2 2 3 3 4 3 3 3 3
3 4 6 7 8 11 5 1 3 3 7 2 2 4 3 5 6 4 4 3 2 2 2 1 1 1 2 1 0 1 1 3 3 2 2 2 2 3 3 3 3 2 3 2
8 6 7 6 7 12 2 5 6 6 2 2 2 2 3 4 4 3 3 3 3 3 2 2 1 2 2 1 0 1 2 3 2 1 2 2 2 2 2 2 2 2 2 2
7 8 6 9 9 3 3 5 3 1 2 3 3 3 2 3 3 3 3 3 2 2 2 2 1 2 2 1 0 1 3 2 1 1 2 2 2 2 2 2 2 2 2 2
4 1 3 5 8 5 4 4 3 3 3 3 3 3 2 3 3 3 3 2 2 2 2 2 2 2 3 2 2 2 2 1 1 1 2 2 2 2 2 2 2 2 2 3
4 4 3 6 6 5 5 5 5 3 2 2 2 2 2 2 2 2 2 2 2 2 2 1 1 2 3 3 3 3 2 1 1 2 2 2 2 2 2 2 3 3 3 4
5 6 6 8 5 4 5 3 1 2 3 2 2 2 2 1 2 2 2 2 2 2 2 2 2 2 3 3 3 4 3 2 2 2 2 2 2 2 2 2 3 5 5 7
Wind_Direction
31 81 218 225 217 224 219 230 258 261 283 248 252 269 279 268 246 248 247 241 237 239 240 191 172 160 150 148 145 149 138 130 118 113 129 150 165 23 39 62 59 60 51 50
47 252 246 239 224 233 243 256 267 282 287 246 282 279 277 259 242 238 239 240 235 234 225 202 183 169 171 172 168 163 162 156 151 147 161 164 156 152 63 41 62 53 68 62
193 245 256 195 220 242 245 234 248 264 329 325 317 294 269 264 248 262 249 238 228 212 213 210 202 195 184 185 185 179 175 166 158 138 116 97 85 83 48 348 339 351 56 93
236 267 253 206 229 207 257 243 238 252 285 283 328 290 282 265 280 270 257 246 234 219 206 206 203 198 193 197 182 173 169 163 160 150 146 150 168 189 217 237 272 302 277 59
255 258 219 230 240 202 234 332 227 234 219 277 240 247 279 299 279 273 261 248 237 219 201 200 205 206 197 179 165 169 162 158 156 165 170 172 188 207 199 198 260 294 289 288
253 264 219 228 250 202 185 47 43 58 102 262 221 207 273 236 234 263 268 260 246 228 219 218 201 152 156 134 137 147 157 166 162 169 180 185 193 191 174 214 230 266 284 261
303 281 275 156 68 22 94 89 360 336 300 254 196 211 252 249 241 239 264 274 281 254 213 212 49 68 166 151 155 159 166 180 177 179 192 202 203 194 200 211 218 228 257 261
281 284 242 208 191 192 198 163 175 226 246 282 257 237 256 263 273 280 270 258 299 298 222 221 16 340 268 198 178 184 190 198 194 196 213 214 216 209 214 217 217 222 234 247
210 263 313 230 245 157 160 201 184 159 249 273 264 278 296 278 291 295 329 21 312 286 267 276 349 342 324 261 222 215 215 216 211 212 216 216 217 226 231 226 223 228 239 250
175 261 279 301 74 358 171 154 123 162 230 265 280 265 255 263 259 267 284 283 285 302 316 284 266 277 291 295 296 256 237 239 231 217 221 226 225 233 237 222 225 233 242 246
161 209 287 299 201 204 162 166 173 177 195 210 272 268 233 230 237 238 249 249 247 255 260 259 262 266 277 1 4 295 283 302 297 264 242 241 243 239 243 237 234 233 241 243
175 164 254 248 237 199 193 199 174 192 236 219 246 269 269 235 246 231 245 247 250 249 258 262 265 280 272 269 269 254 260 261 274 284 271 255 257 248 250 257 247 236 240 244
156 150 299 321 325 357 234 223 204 183 178 207 230 263 296 303 288 258 248 263 272 276 279 283 278 265 260 258 258 257 254 257 275 291 309 303 282 259 249 260 258 242 239 248
158 186 207 229 239 196 232 233 201 181 212 234 235 257 278 284 288 287 278 272 270 269 273 278 273 269 269 264 257 256 263 259 259 252 253 276 270 261 260 262 267 249 237 237
163 232 239 255 263 240 240 240 214 214 221 231 250 250 263 265 263 265 263 267 272 272 274 273 271 272 273 271 264 255 253 249 233 229 244 257 271 270 268 270 275 263 245 240
181 228 249 266 254 252 262 254 231 232 236 245 263 268 266 279 271 266 264 261 262 264 265 271 275 276 271 265 263 264 255 250 231 229 247 263 270 277 262 258 268 271 258 249
198 192 227 263 288 306 267 237 215 220 218 214 239 255 280 283 269 261 263 261 256 260 263 266 267 264 268 265 260 256 254 249 232 239 249 254 256 269 266 261 262 266 258 248
190 192 216 272 343 250 247 190 202 226 244 227 244 271 277 268 273 265 251 246 256 262 269 271 274 278 279 270 265 258 243 222 230 246 256 261 261 270 278 260 255 265 259 242
203 190 201 216 253 270 282 224 185 214 263 230 240 267 283 295 307 280 253 237 249 256 266 269 267 269 278 281 268 238 241 235 242 253 259 260 254 260 268 261 255 258 261 253
194 192 198 202 232 250 256 227 204 148 274 255 227 257 274 304 288 277 313 310 301 304 298 292 296 300 298 297 275 209 254 249 254 260 264 265 253 249 258 264 264 261 256 255
175 199 214 221 238 260 257 209 124 185 259 299 246 257 241 233 244 287 318 321 310 307 312 310 310 314 301 303 304 266 272 262 267 277 280 275 263 258 259 267 267 265 266 267
187 189 205 199 226 252 183 141 188 228 292 293 286 277 254 264 285 308 326 330 334 334 334 341 348 333 332 347 121 281 281 278 281 281 282 281 277 271 270 259 268 260 253 257
204 198 196 201 221 246 172 204 240 282 280 288 289 288 267 275 286 306 319 323 325 330 333 341 351 341 340 342 234 262 285 294 298 304 293 292 290 281 274 254 256 254 240 242
243 208 209 254 262 256 254 259 275 268 264 281 284 280 249 259 276 293 305 321 328 336 336 342 359 350 333 335 324 284 297 297 280 283 287 289 286 285 280 270 258 251 246 243
222 173 213 256 275 301 269 248 259 273 277 286 301 289 261 253 276 286 298 305 310 317 331 344 338 318 313 323 321 314 314 307 283 279 282 286 278 272 269 265 257 259 247 242
194 185 196 239 240 229 264 281 263 253 269 274 289 311 327 267 270 280 279 289 302 315 332 335 331 320 318 324 321 321 320 302 283 290 294 288 283 280 277 278 288 282 282 283